This demonstration page uses our WeatherBlox Daily Observations layout. Learn more.

Left ArrowRight Arrow

39.95238, -75.16362

Hourly Observations for January 6, 2019

Temp ( °F °C ) Dew Point ( °F °C ) Humidity (%) Winds ( mph kmh ) Pressure ( in mb ) Visibility ( mi km ) Precip ( " mm )
12:54 am 00:54 Clear 45 7.2 34 1.1 66 66 WNW 10 17 29.79 1009 10 16 0.00 0.00
1:54 am 01:54 Clear 43 6.1 34 1.1 71 71 WNW 8 13 29.82 1010 10 16 0.00 0.00
2:54 am 02:54 Clear 38 3.3 33 0.6 83 83 W 9 15 29.84 1010 10 16 0.00 0.00
3:54 am 03:54 Clear 39 3.9 34 1.1 82 82 W 10 17 29.85 1011 10 16 0.00 0.00
4:54 am 04:54 Partly Cloudy 39 3.9 34 1.1 82 82 WSW 7 11 29.85 1011 10 16 0.00 0.00
5:54 am 05:54 Mostly Cloudy 41 5 36 2.2 82 82 WSW 8 13 29.87 1011 10 16 0.00 0.00
6:54 am 06:54 Cloudy 43 6.1 37 2.8 80 80 WSW 10 17 29.89 1012 10 16 0.00 0.00
7:54 am 07:54 Cloudy 45 7.2 37 2.8 74 74 WSW 15 24 29.92 1013 10 16 0.00 0.00
8:54 am 08:54 Cloudy 46 7.8 37 2.8 71 71 WSW 15 24 29.94 1014 10 16 0.00 0.00
9:54 am 09:54 Cloudy 47 8.3 36 2.2 66 66 W 15 24 29.97 1015 10 16 0.00 0.00
10:54 am 10:54 Mostly Cloudy 48 8.9 35 1.7 61 61 W 13 20 29.98 1015 10 16 0.00 0.00
11:54 am 11:54 Partly Cloudy 50 10 30 -1.1 46 46 NW 20 31 29.97 1015 10 16 0.00 0.00
12:54 pm 12:54 Partly Cloudy 51 10.6 26 -3.3 38 38 NW 25 41 29.97 1015 10 16 0.00 0.00
1:54 pm 13:54 Partly Cloudy 52 11.1 26 -3.3 37 37 NNW 22 35 29.98 1015 10 16 0.00 0.00
2:54 pm 14:54 Partly Cloudy 51 10.6 24 -4.4 35 35 NW 18 30 30.02 1017 10 16 0.00 0.00
3:54 pm 15:54 Mostly Sunny 49 9.4 23 -5 36 36 NW 17 28 30.06 1018 10 16 0.00 0.00
4:54 pm 16:54 Mostly Clear 46 7.8 22 -5.6 38 38 NNW 20 31 30.11 1020 10 16 0.00 0.00
5:54 pm 17:54 Mostly Clear 44 6.7 21 -6.1 40 40 WNW 13 20 30.16 1021 10 16 0.00 0.00
6:54 pm 18:54 Mostly Clear 43 6.1 19 -7.2 38 38 NW 14 22 30.19 1022 10 16 0.00 0.00
7:54 pm 19:54 Mostly Clear 42 5.6 20 -6.7 41 41 NW 13 20 30.23 1024 10 16 0.00 0.00
8:54 pm 20:54 Clear 40 4.4 20 -6.7 45 45 NW 14 22 30.26 1025 10 16 0.00 0.00
9:54 pm 21:54 Mostly Clear 37 2.8 21 -6.1 52 52 N 10 17 30.28 1025 10 16 0.00 0.00
10:54 pm 22:54 Partly Cloudy 36 2.2 20 -6.7 52 52 NNW 14 22 30.31 1027 10 16 0.00 0.00
11:54 pm 23:54 Mostly Cloudy 35 1.7 18 -7.8 50 50 N 12 19 30.33 1027 10 16 0.00 0.00

Powered by AerisWeather